[[{"header":{"parameterUnit":"m.s-1","parameterCategory":1,"la1":30.2991,"la2":30.254,"lo1":-89.0895,"lo2":-89.0444,"dy":0.0017,"dx":0.0017,"nx":28,"ny":28,"refTime":"2025-07-22T21:00:00:Z","depth":0,"parameterNumber":2,"parameterNumberName":"U-component_of_WINDS"},"data":[0,0,0,0,0,0,0,0,0,0,0,0,0,0,0,0,0,0,0,0,0,0,0,0,0,0,0,0,0,0,0,0,0,0,0,0,0,0,0,0,0,0,0,0,0,0,0,0,0,0,0,0,0,0,0,0,0,0,2.1678,2.1678,0,2.1695,2.1696,2.1696,2.1635,2.1633,2.1631,2.163,2.165,2.1653,2.1655,0,0,0,0,0,0,0,0,0,0,0,0,0,2.1594,2.1596,2.1678,2.1678,2.1678,2.1695,2.1696,2.1696,2.1635,2.1633,2.1631,2.1629,2.165,2.1652,2.1655,0,0,0,0,0,0,0,0,0,0,0,0,0,2.1623,2.1597,2.1678,2.165,2.1648,2.1695,2.1696,2.1696,2.1636,2.1633,2.163,2.1628,2.1649,2.1652,2.1655,2.1731,0,0,2.1666,2.1667,0,0,0,0,0,0,0,0,2.1622,2.1626,2.1654,2.1652,2.1649,2.166,2.1674,2.1708,2.1636,2.164,2.163,2.1626,2.1656,2.1659,2.1668,2.1732,2.1733,2.1666,2.1668,2.167,2.167,0,0,0,0,0,0,0,2.162,2.1625,2.1685,2.1654,2.1652,2.1638,2.1639,2.168,2.1664,2.164,2.1635,2.1638,2.1654,2.1665,2.1668,2.1734,2.1666,2.1669,2.1671,2.1672,2.1863,2.1866,0,0,0,0,0,0,2.1621,2.1624,2.1684,2.1685,2.1628,2.1641,2.1642,2.166,2.1663,2.1661,2.1641,2.1635,2.166,2.1664,2.1669,2.1759,2.167,2.1673,2.1675,2.186,2.1864,2.1867,0,0,0,0,0,0,2.1619,2.1627,2.1683,2.1653,2.166,2.1646,2.1665,2.1661,2.1672,2.1663,2.166,2.1654,2.1658,2.1664,2.1716,2.1759,2.1674,2.1677,2.1856,2.1861,2.1865,2.1941,0,0,0,0,0,0,2.1617,2.1627,2.1655,2.1654,2.1661,2.1731,2.1668,2.1664,2.1678,2.1671,2.1676,2.1674,2.1657,2.1712,2.172,2.1762,2.168,2.1853,2.1858,2.1864,2.1935,2.1948,2.1959,0,0,0,0,0,2.1614,2.1676,2.1657,2.1664,2.1696,2.1733,2.1737,2.1716,2.1681,2.171,2.1705,2.1674,2.1753,2.1718,2.1726,2.1771,2.185,2.1857,2.1863,2.1929,2.1945,2.1958,0,0,0,0,0,0,2.1682,2.1675,2.1654,2.1717,2.1726,2.1723,2.1758,2.1733,2.1753,2.1746,2.1719,2.172,2.1778,2.1779,2.174,2.1845,2.1796,2.1804,2.1843,2.1858,2.1869,2.1869,2.1683,0,0,0,0,0,2.1704,2.1734,2.1726,2.1783,2.1788,2.1773,2.1788,2.177,2.1779,2.1783,2.1782,2.1792,2.1819,2.1838,2.1863,2.1934,2.1935,2.1968,2.198,2.199,2.1999,2.2038,2.2054,2.1889,2.1889,2.1889,0,0,2.1751,2.175,2.1771,2.1796,2.1801,2.1834,2.1776,2.1813,2.1837,2.1789,2.1839,2.1838,2.1848,2.1911,2.1938,2.1913,2.2044,2.1999,2.2007,2.201,2.2047,2.2063,2.2077,2.1894,2.1893,2.1892,0,0,2.1852,2.1854,2.1902,2.1908,2.1916,2.1906,2.1917,2.1918,2.1915,2.1965,2.193,2.1958,2.2005,2.2015,2.2025,2.2131,2.2104,2.2139,2.2203,2.2241,2.2254,2.2266,2.2305,2.232,2.2147,2.2148,2.2148,0,2.1909,2.1956,2.193,2.1969,2.1982,2.1939,2.1988,2.1995,2.2012,2.2022,2.1993,2.2052,2.2056,2.2121,2.2147,2.2156,2.217,2.214,2.2254,2.2266,2.2276,2.2313,2.2328,2.2152,2.2152,2.2151,2.2151,0,2.2027,2.206,2.2098,2.2114,2.2131,2.2175,2.2156,2.2177,2.2158,2.215,2.2202,2.2204,2.223,2.2243,2.2225,2.2306,2.2291,2.2259,2.2209,2.2297,2.2332,2.2345,2.2159,2.2157,2.2156,2.2154,0,0,2.2173,2.2174,2.2189,2.2196,2.2202,2.2227,2.227,2.2293,2.2312,2.2325,2.2361,2.2402,2.2372,2.2385,2.2367,2.2401,2.2487,2.2365,2.2365,2.2389,2.2579,2.2604,2.2621,2.2468,2.247,2.2472,2.2578,0,2.2275,2.2347,2.2324,2.2398,2.2429,2.2388,2.2425,2.2433,2.2427,2.2454,2.2447,2.2478,2.2435,2.2443,2.2474,2.247,2.2525,2.2461,2.2503,2.2505,2.2504,2.2639,2.2666,2.2767,2.2592,2.2594,2.2595,0,2.2403,2.242,2.2497,2.2498,2.251,2.2544,2.2564,2.2589,2.2598,2.2592,2.2606,2.2581,2.2624,2.2573,2.2632,2.259,2.2605,2.2606,2.2609,2.2614,2.2557,2.265,2.2798,2.2814,2.2616,2.2615,2.2613,0,2.2505,2.2547,2.2599,2.2606,2.2608,2.2633,2.2635,2.2641,2.2657,2.2675,2.2686,2.2708,2.2722,2.2741,2.2724,2.2687,2.2787,2.2733,2.2785,2.2785,2.2809,2.2809,2.2964,2.2816,2.2815,2.2815,2.2815,0,2.2622,2.2671,2.2645,2.2677,2.273,2.2704,2.2759,2.2756,2.2762,2.2794,2.2759,2.279,2.2764,2.2793,2.278,2.2833,2.2838,2.2836,2.2832,2.284,2.2841,2.2852,2.2845,2.2819,2.2818,2.2817,2.2817,0,2.2747,2.273,2.2784,2.2781,2.2782,2.2822,2.282,2.285,2.2841,2.2882,2.289,2.2877,2.2909,2.2893,2.2927,2.2918,2.2987,2.2972,2.2984,2.2981,2.3034,2.303,2.3204,2.3227,2.3061,2.3063,2.3064,0,2.2824,2.286,2.2861,2.288,2.2884,2.2914,2.293,2.2905,2.2924,2.2937,2.2966,2.2995,2.3017,2.307,2.3065,2.3091,2.3078,2.3137,2.3082,2.309,2.3082,2.3081,2.3086,2.3149,2.3151,2.3153,2.3154,0,2.2963,2.2953,2.2977,2.2999,2.3019,2.3035,2.3048,2.3065,2.3041,2.3063,2.3095,2.3112,2.3146,2.3177,2.3199,2.3202,2.3176,2.3171,2.3185,2.3195,2.3201,2.3201,2.3017,2.3168,2.3166,2.3165,2.3165,2.3164,2.3068,2.3099,2.3105,2.3133,2.314,2.3153,2.3182,2.3176,2.3202,2.3227,2.3211,2.325,2.3258,2.3285,2.3292,2.3323,2.33,2.3319,2.3324,2.333,2.3338,2.3194,2.3327,2.3326,2.3326,2.3325,2.3325,0,2.3208,2.3209,2.3235,2.3254,2.3277,2.3247,2.326,2.3281,2.3315,2.3325,2.3347,2.3385,2.3414,2.341,2.3436,2.3462,2.345,2.347,2.3469,2.3471,2.3356,2.3343,2.3479,2.3479,2.3479,2.3479,2.3479,2.3479,2.3284,2.3335,2.3326,2.3381,2.3382,2.3419,2.3429,2.3442,2.3449,2.3493,2.3516,2.3513,2.3518,2.3544,2.357,2.3568,2.3581,2.3606,2.36,2.3494,2.3479,2.3464,2.3452,2.3608,2.3608,2.3712,2.3713,2.3714]},{"header":{"parameterUnit":"m.s-1","parameterCategory":1,"la1":30.2991,"la2":30.254,"lo1":-89.0895,"lo2":-89.0444,"dy":0.0017,"dx":0.0017,"nx":28,"ny":28,"refTime":"2025-07-22T21:00:00:Z","depth":0,"parameterNumber":3,"parameterNumberName":"V-component_of_WINDS"},"data":[0,0,0,0,0,0,0,0,0,0,0,0,0,0,0,0,0,0,0,0,0,0,0,0,0,0,0,0,0,0,0,0,0,0,0,0,0,0,0,0,0,0,0,0,0,0,0,0,0,0,0,0,0,0,0,0,0,0,-2.0372,-2.0373,0,-2.0451,-2.0451,-2.0452,-2.0453,-2.0452,-2.0451,-2.045,-2.053,-2.0533,-2.0536,0,0,0,0,0,0,0,0,0,0,0,0,0,-2.0224,-2.0227,-2.0372,-2.0373,-2.0374,-2.045,-2.0451,-2.0453,-2.0453,-2.0452,-2.045,-2.0449,-2.0529,-2.0533,-2.0537,0,0,0,0,0,0,0,0,0,0,0,0,0,-2.0294,-2.0228,-2.0372,-2.0383,-2.0385,-2.045,-2.0451,-2.0453,-2.0453,-2.0451,-2.045,-2.0449,-2.0528,-2.0533,-2.0537,-2.0596,0,0,-2.0551,-2.0553,0,0,0,0,0,0,0,0,-2.029,-2.0299,-2.0381,-2.0383,-2.0385,-2.044,-2.0429,-2.0501,-2.0453,-2.0427,-2.045,-2.0448,-2.0502,-2.0508,-2.0526,-2.06,-2.0603,-2.0552,-2.0555,-2.0557,-2.0558,0,0,0,0,0,0,0,-2.0285,-2.0296,-2.0403,-2.0382,-2.0384,-2.0385,-2.0393,-2.0443,-2.0472,-2.0429,-2.043,-2.0439,-2.0503,-2.0522,-2.0528,-2.0605,-2.0552,-2.0556,-2.0559,-2.0561,-2.0732,-2.0733,0,0,0,0,0,0,-2.0278,-2.0292,-2.0401,-2.0406,-2.0333,-2.0389,-2.0398,-2.0424,-2.0472,-2.0477,-2.044,-2.0439,-2.0515,-2.0523,-2.0531,-2.0604,-2.0557,-2.0561,-2.0564,-2.073,-2.0732,-2.0734,0,0,0,0,0,0,-2.0275,-2.0288,-2.0398,-2.0349,-2.0363,-2.0393,-2.0422,-2.0426,-2.0446,-2.048,-2.0485,-2.0454,-2.0514,-2.0525,-2.058,-2.0607,-2.0563,-2.0567,-2.0728,-2.0731,-2.0733,-2.075,0,0,0,0,0,0,-2.027,-2.0286,-2.0309,-2.0349,-2.0365,-2.0445,-2.0424,-2.0429,-2.0454,-2.0452,-2.0494,-2.05,-2.0514,-2.0573,-2.0585,-2.0612,-2.0571,-2.0726,-2.0729,-2.0732,-2.0747,-2.0752,-2.0757,0,0,0,0,0,-2.0265,-2.031,-2.031,-2.0323,-2.0394,-2.0446,-2.0456,-2.047,-2.0456,-2.0479,-2.0501,-2.0499,-2.0602,-2.0579,-2.0592,-2.0621,-2.0724,-2.0728,-2.0732,-2.0744,-2.0751,-2.0757,0,0,0,0,0,0,-2.0272,-2.0316,-2.0316,-2.0375,-2.0407,-2.0446,-2.0476,-2.0477,-2.0514,-2.0511,-2.0528,-2.0537,-2.0593,-2.0613,-2.0586,-2.0681,-2.0661,-2.0668,-2.0666,-2.0673,-2.0678,-2.0673,-2.0575,0,0,0,0,0,-2.028,-2.0319,-2.0355,-2.0404,-2.042,-2.0445,-2.0469,-2.0477,-2.0511,-2.0524,-2.055,-2.0583,-2.0623,-2.0649,-2.0688,-2.075,-2.0759,-2.0776,-2.0782,-2.0786,-2.0791,-2.0826,-2.0835,-2.0747,-2.0747,-2.0747,0,0,-2.0298,-2.0327,-2.035,-2.0407,-2.0432,-2.0472,-2.0457,-2.05,-2.053,-2.0531,-2.0585,-2.0605,-2.0643,-2.0703,-2.073,-2.0721,-2.0818,-2.0791,-2.0794,-2.0797,-2.0831,-2.084,-2.0847,-2.075,-2.0749,-2.0749,0,0,-2.0352,-2.0377,-2.0421,-2.0447,-2.0486,-2.0502,-2.0513,-2.0552,-2.0566,-2.062,-2.0623,-2.0659,-2.0727,-2.0754,-2.0777,-2.0841,-2.0841,-2.0854,-2.0881,-2.0915,-2.0922,-2.0928,-2.0952,-2.096,-2.0859,-2.0859,-2.0859,0,-2.0369,-2.0429,-2.0443,-2.0487,-2.0512,-2.0515,-2.056,-2.0585,-2.0634,-2.0652,-2.0641,-2.0727,-2.0753,-2.0819,-2.0835,-2.0853,-2.0866,-2.0849,-2.092,-2.0926,-2.0932,-2.0955,-2.0963,-2.086,-2.086,-2.086,-2.086,0,-2.0449,-2.049,-2.0521,-2.0569,-2.0598,-2.0642,-2.0663,-2.069,-2.0697,-2.0714,-2.077,-2.0802,-2.0847,-2.0863,-2.087,-2.093,-2.0924,-2.0916,-2.0896,-2.0941,-2.0963,-2.0972,-2.0862,-2.0862,-2.0861,-2.0861,0,0,-2.0508,-2.0564,-2.0575,-2.0597,-2.0641,-2.0674,-2.0718,-2.0762,-2.0786,-2.082,-2.0858,-2.0916,-2.091,-2.0936,-2.0945,-2.0975,-2.1025,-2.0964,-2.0965,-2.0974,-2.1094,-2.11,-2.111,-2.1025,-2.1026,-2.1028,-2.1091,0,-2.0566,-2.0645,-2.0659,-2.0728,-2.0767,-2.0771,-2.081,-2.0841,-2.0859,-2.0896,-2.0915,-2.0957,-2.0945,-2.096,-2.099,-2.1012,-2.1049,-2.1008,-2.1061,-2.1063,-2.1052,-2.1121,-2.1127,-2.1186,-2.11,-2.1101,-2.1102,0,-2.0645,-2.0681,-2.0754,-2.0793,-2.081,-2.0844,-2.0886,-2.0921,-2.0957,-2.0968,-2.0997,-2.1003,-2.105,-2.1028,-2.1093,-2.1065,-2.1088,-2.1102,-2.1105,-2.1111,-2.1085,-2.1129,-2.1205,-2.1214,-2.1116,-2.1115,-2.1114,0,-2.0681,-2.0749,-2.0801,-2.082,-2.0866,-2.0891,-2.0911,-2.0946,-2.0972,-2.1009,-2.1026,-2.1068,-2.1091,-2.1123,-2.1141,-2.1123,-2.1206,-2.1185,-2.1217,-2.1216,-2.1234,-2.1233,-2.1315,-2.1248,-2.1248,-2.1248,-2.1247,0,-2.0745,-2.0789,-2.0818,-2.085,-2.09,-2.0917,-2.0966,-2.0987,-2.1017,-2.1054,-2.106,-2.1094,-2.1116,-2.1153,-2.1168,-2.122,-2.123,-2.1241,-2.1244,-2.1241,-2.124,-2.1256,-2.1253,-2.125,-2.1249,-2.1249,-2.1248,0,-2.0795,-2.0815,-2.0873,-2.0912,-2.0923,-2.0959,-2.0993,-2.1025,-2.1043,-2.1089,-2.1101,-2.113,-2.1174,-2.1196,-2.1251,-2.1261,-2.132,-2.1321,-2.1308,-2.1309,-2.134,-2.1337,-2.1436,-2.145,-2.1374,-2.1374,-2.1375,0,-2.0834,-2.0868,-2.0912,-2.0936,-2.0958,-2.0998,-2.1024,-2.1042,-2.107,-2.1114,-2.114,-2.1185,-2.1222,-2.1294,-2.132,-2.1362,-2.1364,-2.1396,-2.1371,-2.1366,-2.1365,-2.1363,-2.1367,-2.14,-2.1401,-2.1402,-2.1402,0,-2.0902,-2.0911,-2.0948,-2.099,-2.1022,-2.1056,-2.1089,-2.1109,-2.1133,-2.1163,-2.1209,-2.1238,-2.1295,-2.1339,-2.1384,-2.1406,-2.1408,-2.141,-2.142,-2.1417,-2.1408,-2.1414,-2.1321,-2.1408,-2.1407,-2.1407,-2.1406,-2.1406,-2.0948,-2.0979,-2.1015,-2.1057,-2.1084,-2.1115,-2.1147,-2.1169,-2.1207,-2.1255,-2.1263,-2.1312,-2.1348,-2.1408,-2.1432,-2.147,-2.1463,-2.1477,-2.1481,-2.1484,-2.1486,-2.1402,-2.1479,-2.1478,-2.1478,-2.1478,-2.1478,0,-2.1017,-2.104,-2.1079,-2.1125,-2.1159,-2.1158,-2.1195,-2.1223,-2.1266,-2.1299,-2.1335,-2.1388,-2.1432,-2.1462,-2.1506,-2.1532,-2.1534,-2.1543,-2.1541,-2.1547,-2.149,-2.1477,-2.154,-2.154,-2.154,-2.154,-2.154,-2.154,-2.1057,-2.1109,-2.1122,-2.1188,-2.1211,-2.1259,-2.1281,-2.131,-2.1336,-2.1395,-2.1431,-2.145,-2.1482,-2.1529,-2.157,-2.1577,-2.1594,-2.1603,-2.161,-2.1557,-2.155,-2.1544,-2.1532,-2.1606,-2.1606,-2.1664,-2.1665,-2.1665]}]]